Aktas

Kazakhstan     48˚03′20″N   66˚22′32″E
temp.,
°C
wind,
m/s
gust,
m/s
humid.,
%
clouds,
%
prec.,
mm/h
press.,
hPa
HPBL,
m
3 december, thu
thu323:00−16˚e45950 0.0 103364
02:00−17˚e449724 0.0 103234
05:00−17˚e349832 0.0 103228
08:00−17˚ese239944 0.0 103220
11:00−15˚ese129542 0.0 103220
14:00−14˚ssw11946 0.0 103120
17:00−18˚w111003 0.0 103220
20:00−19˚nnw001000 0.0 103220
4 december, fri
fri423:00−19˚se11990 0.0 103220
02:00−20˚wnw111000 0.0 103120
05:00−20˚ene111000 0.0 103220
08:00−20˚e22960 0.0 103220
11:00−17˚e22950 0.0 103322
14:00−16˚ene239514 0.0 103333
17:00−19˚ne239922 0.0 103320
20:00−19˚ene449829 0.0 103437
5 december, sat
sat523:00−20˚ene449928 0.0 103439
02:00−21˚ene449936 0.0 103438
05:00−21˚ene449936 0.0 103442
08:00−21˚ene459835 0.0 103565
11:00−19˚e589637 0.0 1036159
14:00−18˚e469534 0.0 1036140
17:00−21˚ene449721 0.0 103747
20:00−22˚e579713 0.0 103785
6 december, sun
sun623:00−22˚e579819 0.0 103795
02:00−23˚e579834 0.0 103883
05:00−23˚e579833 0.0 103892
08:00−23˚e699731 0.0 1039112
11:00−21˚e799631 0.0 1039150
14:00−20˚e679414 0.0 1038132
17:00−21˚e68957 0.0 103796
20:00−20˚e69960 0.0 1036109
7 december, mon
mon723:00−20˚e699510 0.0 1035111
02:00−19˚e69920 0.0 1034103
05:00−18˚ene68954 0.0 1033104
08:00−17˚ene689424 0.0 1033103
11:00−15˚ene589112 0.0 1033138
14:00−14˚ne46890 0.0 1032120
17:00−15˚ne44880 0.0 103339
20:00−15˚ne34890 0.0 103432